Weather History for Everett, WA

Change the Weather History Date:

Tuesday, March 25, 2014

  Actual Average Record
Temperature  
Mean Temperature 50 °F -  
Max Temperature 55 °F 53 °F 62 °F (1997)
Min Temperature 46 °F 36 °F 28 °F (1975)
Degree Days  
Heating Degree Days 14    
Moisture  
Dew Point 40 °F    
Average Humidity 68    
Maximum Humidity 86    
Minimum Humidity 37    
Precipitation  
Precipitation 0.10 in - - ()
Sea Level Pressure  
Sea Level Pressure 29.64 in    
Wind  
Wind Speed 14 mph (South)    
Max Wind Speed 36 mph    
Max Gust Speed 44 mph    
Visibility 10 miles    
Events Rain    
Averages and records for this station are not official NWS values.
T = Trace of Precipitation, MM = Missing Value Source: NWS Daily Summary

Daily Weather History Graph

Daily Weather History Graph

Search for Another Location

Airport:

Trip Planner

Search our weather history database for the weather conditions in past years. The results will help you decide how hot, cold, wet, or windy it might be!

Date:

Astronomy

Mar. 25, 2014 Rise Set
Actual Time 7:01 AM PDT 7:29 PM PDT
Civil Twilight 6:30 AM PDT 8:00 PM PDT
Nautical Twilight 5:53 AM PDT 8:37 PM PDT
Astronomical Twilight 5:15 AM PDT 9:15 PM PDT
Moon 3:49 AM PDT (3/25) 1:45 PM PDT (3/25)
Length of Visible Light 13h 29m
Length of Day
12h 27m
Waning Crescent, 31% of the Moon is Illuminated
Mar 25
Waning Crescent
Mar 30
New
Apr 7
First Quarter
Apr 15
Full
Apr 22
Last Quarter

Hourly Weather History & Observations

Time (PDT) Temp. Windchill Dew Point Humidity Pressure Visibility Wind Dir Wind Speed Gust Speed Precip Events Conditions
12:53 AM 55.0 °F - 28.9 °F 37% 29.88 in 10.0 mi SSE 12.7 mph - N/A   Clear
1:53 AM 54.0 °F - 28.9 °F 38% 29.86 in 10.0 mi SSW 13.8 mph - N/A   Overcast
2:53 AM 55.0 °F - 30.0 °F 38% 29.82 in 10.0 mi Variable 3.5 mph - N/A   Overcast
3:53 AM 54.0 °F - 30.9 °F 41% 29.79 in 10.0 mi Variable 5.8 mph - N/A   Mostly Cloudy
4:53 AM 53.1 °F - 30.9 °F 43% 29.75 in 10.0 mi ESE 8.1 mph - N/A   Mostly Cloudy
5:53 AM 52.0 °F - 32.0 °F 47% 29.74 in 10.0 mi Variable 4.6 mph - N/A   Overcast
6:53 AM 51.1 °F - 36.0 °F 56% 29.74 in 10.0 mi SW 8.1 mph - 0.00 in   Overcast
7:53 AM 50.0 °F - 39.9 °F 68% 29.73 in 10.0 mi South 11.5 mph - 0.00 in   Overcast
8:53 AM 48.0 °F - 41.0 °F 77% 29.71 in 10.0 mi SSE 11.5 mph - 0.00 in Rain Light Rain
9:53 AM 48.0 °F - 41.0 °F 77% 29.67 in 7.0 mi SSE 9.2 mph - 0.01 in Rain Light Rain
10:53 AM 50.0 °F - 43.0 °F 77% 29.63 in 10.0 mi SSE 6.9 mph - 0.00 in   Overcast
11:53 AM 50.0 °F - 44.1 °F 80% 29.61 in 6.0 mi SSE 9.2 mph - 0.01 in Rain Light Rain
12:53 PM 52.0 °F - 45.0 °F 77% 29.60 in 10.0 mi South 17.3 mph 23.0 mph 0.00 in   Overcast
1:53 PM 51.1 °F - 46.9 °F 86% 29.59 in 10.0 mi South 17.3 mph 21.9 mph 0.03 in Rain Light Rain
2:53 PM 53.1 °F - 46.0 °F 77% 29.56 in 10.0 mi SSE 18.4 mph 25.3 mph 0.00 in   Clear
3:53 PM 54.0 °F - 44.1 °F 69% 29.55 in 10.0 mi South 18.4 mph 26.5 mph N/A   Overcast
4:53 PM 53.1 °F - 44.1 °F 71% 29.53 in 9.0 mi South 16.1 mph 24.2 mph 0.01 in   Mostly Cloudy
5:53 PM 52.0 °F - 44.1 °F 74% 29.52 in 10.0 mi South 17.3 mph 27.6 mph 0.03 in   Overcast
6:53 PM 50.0 °F - 44.1 °F 80% 29.52 in 10.0 mi South 20.7 mph 33.4 mph 0.00 in   Overcast
7:39 PM 48.9 °F - 44.1 °F 83% 29.53 in 10.0 mi South 25.3 mph 34.5 mph 0.01 in Rain Light Rain
7:53 PM 48.9 °F - 44.1 °F 83% 29.54 in 10.0 mi South 26.5 mph 34.5 mph 0.01 in   Mostly Cloudy
8:53 PM 48.0 °F - 42.1 °F 80% 29.55 in 10.0 mi South 26.5 mph 34.5 mph N/A   Mostly Cloudy
9:36 PM 46.9 °F - 39.9 °F 77% 29.56 in 10.0 mi South 27.6 mph 39.1 mph N/A   Scattered Clouds
9:53 PM 46.9 °F - 39.0 °F 74% 29.56 in 10.0 mi South 35.7 mph 43.7 mph N/A   Partly Cloudy
10:53 PM 46.9 °F - 39.0 °F 74% 29.59 in 10.0 mi South 24.2 mph 40.3 mph N/A   Clear
11:53 PM 46.0 °F 38.0 °F 37.9 °F 73% 29.61 in 10.0 mi South 21.9 mph 29.9 mph N/A   Clear